Wind_Speed
13 15 14 13 11 11 13 13 12 12 13 13 11 9 9 9 7 6 6 6 7 8 9 9 9 9 9 9 9 9 8 8 7 7 7 7 7 7 9 9 8 8 8 8 7 7 7 7 7 7 7 9 9 9 8 8 9 11 12 12 12 12 12 11 11 11 11 10 10 9 8 8 8 7 6 6 6 5 5 5 4 4 4 6 7
13 12 12 11 10 10 11 11 11 11 11 9 8 8 8 8 7 7 8 8 9 9 9 9 10 10 9 9 8 8 8 7 7 7 7 7 8 9 10 9 9 8 7 7 7 7 7 7 7 6 7 8 9 9 8 7 8 9 11 12 12 11 11 11 10 11 11 10 10 10 9 8 8 7 7 6 5 4 4 4 4 4 4 4 5
12 10 9 9 9 9 10 10 9 9 8 6 7 9 7 7 9 9 9 10 10 10 10 9 9 9 8 8 8 8 7 7 7 7 8 8 9 10 10 9 9 8 7 7 7 7 7 7 7 6 6 7 7 8 8 7 7 8 10 11 11 10 10 11 10 10 10 9 10 10 9 9 8 8 7 6 6 5 4 4 4 4 4 4 5
10 8 8 8 8 8 9 8 7 7 7 8 9 9 8 9 10 10 10 10 10 10 9 9 8 8 7 7 7 7 7 7 7 7 8 9 10 10 9 8 8 7 7 7 7 8 7 7 6 6 5 5 5 7 8 8 7 7 7 8 9 9 9 9 9 9 8 9 10 10 9 9 8 7 6 6 6 5 4 5 4 4 4 4 4
9 8 8 7 7 7 7 6 7 8 8 10 10 9 9 9 10 10 10 10 9 9 8 8 7 7 6 5 6 7 7 7 7 8 8 8 9 8 7 7 7 7 7 8 8 8 7 7 6 5 4 4 4 6 7 8 7 6 5 5 6 7 8 8 8 7 7 9 10 9 9 8 7 7 6 6 6 5 5 5 5 4 4 4 3
8 8 8 7 6 5 6 6 8 9 9 9 9 8 9 9 9 10 9 9 8 7 7 6 6 5 4 4 6 7 7 7 7 8 8 8 9 8 6 6 6 6 7 8 8 8 7 6 4 3 3 3 3 4 6 7 7 6 6 4 3 4 6 7 7 5 7 9 8 7 8 7 7 7 6 6 6 5 5 5 5 4 4 4 4
9 9 8 7 6 6 7 8 9 10 9 9 8 9 9 9 8 8 8 7 6 6 6 5 4 4 3 4 6 6 6 7 7 8 8 9 9 8 6 6 6 7 8 8 8 7 6 5 4 3 3 2 3 3 4 5 6 6 6 6 3 1 3 5 6 5 6 8 6 6 6 6 6 6 5 5 5 5 4 4 4 3 3 3 4
10 10 10 10 9 9 9 10 10 10 9 9 9 8 8 7 7 6 6 6 6 5 4 4 3 3 3 4 5 5 6 7 8 8 9 10 9 7 6 6 7 8 8 8 7 6 6 5 4 3 3 3 3 3 4 4 5 5 5 6 5 2 1 3 5 6 7 7 6 6 6 5 5 5 5 4 4 4 3 3 2 2 1 2 2
11 11 11 11 11 10 10 9 9 9 9 9 8 7 6 5 5 5 5 5 5 4 3 2 2 2 2 3 4 5 7 8 8 9 9 9 8 6 5 6 7 8 8 7 7 6 6 5 5 4 3 3 3 3 4 4 4 4 4 5 5 4 2 2 4 5 6 6 5 6 6 5 4 4 4 3 3 3 2 1 1 1 1 1 1
12 12 11 11 11 10 9 9 8 8 8 7 7 5 5 4 4 4 5 4 3 2 2 1 1 1 2 2 4 6 8 8 8 8 8 7 6 5 5 6 7 7 7 7 6 7 6 5 5 5 4 4 3 3 3 4 4 4 4 4 5 4 2 1 3 3 3 3 4 6 7 6 5 5 4 3 2 2 2 1 1 1 2 2 2
12 11 11 11 10 10 9 8 7 7 6 6 6 5 4 3 4 4 4 3 2 2 1 1 1 1 2 3 4 6 7 7 7 7 6 6 5 5 6 7 7 7 7 7 6 6 6 5 4 4 4 4 3 3 3 3 4 4 3 4 5 5 3 0 1 1 2 3 3 5 6 6 5 5 4 4 3 2 2 1 1 1 2 3 3
12 11 11 10 10 9 7 7 6 6 5 5 4 4 3 3 4 3 3 2 2 1 1 1 1 2 2 3 4 5 6 6 6 6 5 5 4 5 6 7 7 7 7 7 6 6 5 5 4 4 4 4 4 3 3 4 4 4 4 3 4 5 3 1 2 2 1 2 3 4 5 5 5 5 4 4 4 3 3 2 2 2 2 3 3
11 10 10 9 9 7 6 5 5 5 4 3 3 3 3 3 3 3 3 2 2 2 2 2 2 2 2 3 4 5 6 6 6 5 4 4 4 4 5 5 6 7 7 7 6 5 5 4 4 4 3 4 4 4 4 4 4 4 4 4 3 4 2 2 3 2 2 2 3 4 4 5 5 5 4 3 4 4 3 2 2 2 3 3 4
10 10 9 9 8 6 5 5 5 5 4 3 2 2 2 2 3 3 3 3 2 2 2 2 2 2 3 4 5 6 7 7 6 5 4 3 3 4 5 5 6 7 7 7 7 5 4 3 3 4 4 3 3 4 4 4 4 4 4 4 3 2 2 2 3 3 3 3 3 4 3 4 4 5 4 3 3 3 4 3 2 1 2 2 3
9 9 8 7 6 5 5 5 5 5 4 3 2 2 2 3 3 4 4 3 3 2 2 3 3 3 5 6 7 7 8 8 6 5 4 2 2 4 5 5 6 6 6 7 7 6 5 4 3 3 3 3 3 3 4 4 4 4 4 3 2 3 4 3 3 4 5 4 3 2 1 2 3 4 4 4 4 3 3 4 3 2 0 1 2
8 8 6 6 5 5 6 6 6 4 3 3 3 3 4 4 5 5 5 4 3 3 3 4 4 5 7 8 9 10 11 10 9 7 5 3 3 5 5 5 5 5 6 6 7 7 7 5 4 3 1 2 2 2 3 4 4 4 4 3 3 4 4 4 4 4 4 5 5 3 2 3 3 3 3 4 4 4 3 3 3 3 2 0 1
7 6 4 4 4 4 5 5 5 3 3 4 4 5 5 5 6 6 5 5 5 5 5 6 6 7 9 10 12 12 12 11 10 9 7 5 5 6 6 5 6 6 6 6 6 7 7 7 6 5 3 2 3 2 2 3 4 4 4 4 4 5 4 4 4 5 4 4 5 3 4 5 5 3 3 3 3 4 4 3 2 2 2 1 1
5 4 3 3 4 5 5 5 4 5 5 5 6 6 6 6 6 6 6 6 6 7 7 8 9 9 10 11 12 12 12 11 10 9 8 7 6 7 7 7 7 7 7 7 7 8 8 8 8 7 6 4 3 3 2 3 3 4 4 4 4 4 3 4 5 5 5 4 3 2 4 6 6 4 4 3 3 3 3 4 3 2 1 1 1
4 3 3 3 5 5 5 5 6 6 7 6 6 6 6 6 6 7 8 8 8 9 9 10 10 11 11 11 12 12 12 12 12 11 9 8 8 8 10 10 11 11 10 9 10 10 11 11 11 9 7 6 5 4 4 4 3 3 4 4 3 1 2 6 6 4 4 2 1 2 3 4 5 5 4 4 4 3 3 3 3 3 2 1 2
3 3 3 5 6 5 6 7 8 8 7 7 7 7 7 7 8 8 9 9 10 10 11 11 12 11 11 12 13 14 14 14 14 13 12 11 10 11 12 12 12 13 12 12 12 12 13 13 13 12 10 8 7 6 5 4 4 4 4 5 4 1 1 4 3 1 1 1 1 2 2 2 3 5 5 5 4 4 5 4 4 4 3 2 3
3 3 4 6 6 6 8 8 8 8 7 7 7 8 8 8 9 9 10 11 11 12 12 12 13 12 12 13 14 14 15 15 15 15 14 13 13 12 13 13 13 13 14 14 13 14 14 14 14 14 13 12 10 9 7 6 6 6 7 7 6 6 7 6 4 3 2 2 1 1 2 2 3 5 5 6 6 5 6 6 5 5 5 4 4
4 4 5 7 7 8 9 9 8 8 8 8 8 8 9 9 10 10 11 12 12 12 13 13 13 13 13 13 14 15 15 16 16 16 15 14 14 13 13 13 13 13 13 13 13 14 14 14 14 15 15 14 14 12 11 10 9 8 9 9 9 10 12 9 7 6 4 3 1 0 1 2 2 4 5 6 8 8 7 7 7 7 6 6 5
5 5 7 8 9 10 9 8 8 8 8 8 8 9 9 9 10 10 11 12 12 12 13 13 13 13 13 13 14 15 15 16 16 16 15 14 14 13 13 13 14 14 13 13 13 14 14 15 15 15 15 15 14 14 13 12 11 11 10 11 10 11 12 9 8 8 5 4 3 1 1 2 3 4 5 6 8 9 10 9 9 8 8 8 7
6 7 8 9 9 10 9 8 8 8 9 9 9 9 9 9 9 9 10 11 11 12 13 12 12 13 12 13 14 14 15 15 15 15 14 14 14 14 14 14 14 15 14 14 14 14 15 15 15 15 15 15 15 15 15 14 13 13 12 13 13 12 12 11 10 10 7 6 5 3 3 4 4 5 6 6 7 9 10 10 10 9 9 9 9
8 8 8 10 11 10 8 8 8 9 9 9 9 9 9 10 9 9 9 10 10 11 12 12 11 12 12 12 13 13 14 15 15 15 15 15 15 15 15 15 15 15 14 15 15 15 15 15 15 15 15 15 16 16 16 15 14 14 14 13 14 14 14 14 13 12 9 8 7 6 5 5 6 6 6 6 7 8 9 10 10 11 10 10 10
9 10 10 11 11 10 9 8 8 9 9 9 9 9 9 9 9 9 9 10 10 10 11 11 10 11 11 11 12 13 14 15 15 15 16 15 15 15 14 14 14 15 14 14 15 14 14 15 14 14 14 15 15 14 14 14 14 14 14 13 13 13 14 14 13 12 11 10 9 8 7 7 7 7 7 7 6 7 7 9 10 11 11 12 12
11 11 11 12 11 10 9 9 8 8 8 8 8 8 8 8 9 9 9 9 9 10 10 10 10 11 11 11 11 12 13 13 13 13 14 14 14 14 14 13 13 13 13 13 13 13 13 12 12 12 13 12 12 12 12 12 12 12 12 12 12 12 12 12 12 12 11 11 10 9 8 7 7 7 7 7 7 6 6 7 9 11 12 12 13
13 12 12 12 11 10 9 9 8 8 8 8 8 7 7 7 8 9 9 9 9 9 9 9 11 12 12 11 11 12 12 12 12 12 12 12 12 12 12 12 12 12 11 11 12 11 11 10 11 11 10 10 10 10 10 10 10 10 10 10 10 10 10 10 10 10 10 9 9 9 8 8 7 8 8 8 7 6 5 5 6 8 11 12 13
13 13 12 12 11 9 9 8 8 8 8 8 7 6 6 7 8 8 8 9 8 8 9 9 10 11 11 11 11 11 11 11 11 11 11 11 11 11 11 11 11 11 11 11 11 10 9 9 10 9 9 8 8 8 9 9 9 10 10 10 10 10 9 9 9 9 9 8 8 8 8 8 8 8 8 8 8 6 6 5 5 7 9 11 13
13 13 12 11 10 9 9 9 9 8 8 8 7 6 6 7 7 7 8 8 8 8 8 8 9 10 10 10 10 10 9 9 10 10 10 10 10 10 10 10 10 10 10 10 10 9 9 9 9 9 9 8 8 8 9 9 9 10 10 10 10 10 9 9 9 9 9 8 8 7 7 8 8 8 8 8 8 7 6 6 5 6 8 11 12
14 13 13 11 10 10 9 9 9 9 9 8 7 7 6 6 7 7 7 7 7 7 7 7 8 9 9 9 9 8 8 8 8 8 9 9 9 8 9 9 9 9 9 9 8 8 8 8 8 9 8 8 8 9 9 10 10 10 10 10 10 10 10 10 9 9 9 9 8 8 8 7 8 8 8 8 8 7 7 6 6 6 7 9 11
14 13 13 12 11 10 10 10 9 9 8 8 7 7 6 6 6 7 7 7 7 7 6 6 7 8 8 8 8 7 7 6 7 7 8 8 7 6 7 7 7 7 8 7 7 7 7 7 8 8 8 8 8 9 9 10 10 10 10 10 10 10 11 10 10 10 9 9 9 9 8 8 8 8 8 8 8 8 8 8 7 7 8 9 9
14 14 12 12 11 10 10 9 9 8 7 7 6 6 5 5 5 6 6 7 7 6 6 5 6 6 7 6 5 5 5 5 5 5 6 5 5 5 5 5 6 6 6 6 7 7 8 8 8 8 8 8 8 9 9 9 10 11 11 11 10 10 11 11 11 10 10 9 9 8 9 8 8 9 8 8 8 8 8 8 8 9 9 10 9
15 14 13 12 12 11 9 8 8 7 6 6 6 5 5 4 5 5 5 6 6 6 5 5 4 4 5 4 3 3 3 3 3 3 4 4 4 4 5 5 5 5 6 7 8 8 9 9 9 9 9 9 9 9 10 10 10 11 11 11 11 11 11 11 11 11 10 10 9 8 8 8 8 8 9 9 9 8 8 8 9 9 10 10 10
15 14 13 12 11 10 9 8 7 6 5 5 5 5 4 4 4 4 4 5 5 5 5 4 3 2 3 3 2 1 2 2 3 2 3 4 5 5 5 6 6 6 7 7 8 9 10 11 10 10 11 10 9 9 10 11 11 10 11 11 11 11 11 11 11 11 11 10 9 8 8 8 7 8 8 9 9 9 8 8 8 9 9 10 9
14 13 13 12 11 10 8 7 6 5 4 4 4 4 4 4 3 3 3 4 4 4 4 3 3 1 1 2 2 1 1 2 3 3 3 4 5 6 7 7 8 8 9 8 9 10 10 11 11 11 11 11 10 10 10 12 12 11 10 11 11 11 11 11 11 11 11 11 10 9 8 8 7 7 8 8 9 9 9 9 9 9 9 9 9
13 13 13 12 10 9 8 7 5 4 3 3 3 3 3 3 3 3 4 4 3 3 3 2 2 1 0 1 2 1 1 1 2 3 4 5 5 6 8 9 9 10 10 10 10 10 10 11 11 11 11 11 11 10 10 11 12 11 10 11 11 11 11 11 11 11 11 11 11 10 9 8 8 7 7 8 8 9 9 10 10 10 10 10 9
13 13 12 11 10 8 7 6 5 4 3 2 1 1 2 2 2 3 3 3 3 3 2 2 1 1 1 0 2 1 1 2 2 3 4 5 6 7 8 10 11 11 11 12 11 11 11 12 12 12 11 11 11 10 10 10 11 11 10 10 11 11 11 11 11 11 10 10 10 10 10 9 9 8 8 8 8 8 8 9 9 10 10 10 11
12 12 11 10 9 8 6 6 5 4 3 2 2 1 1 1 2 3 3 3 3 2 2 2 2 2 1 1 0 0 1 2 3 4 5 6 7 8 9 10 12 13 13 13 13 13 14 13 13 13 12 12 11 10 10 10 11 11 10 10 10 11 11 11 11 11 11 10 9 9 10 9 9 9 9 9 9 9 7 7 8 8 9 10 11
11 11 10 9 9 8 6 6 5 5 4 4 3 2 2 1 2 3 3 4 4 3 2 2 2 2 2 2 2 2 3 3 4 5 6 7 9 10 11 12 13 14 15 15 15 15 16 15 15 14 13 12 12 11 10 10 11 11 10 10 10 10 11 10 10 10 10 10 9 9 9 9 9 9 9 9 9 10 9 8 8 8 8 8 10
10 10 10 9 9 7 7 7 6 6 6 5 4 3 3 3 3 3 3 4 4 4 3 3 3 3 3 4 4 4 4 5 5 6 7 9 10 12 13 14 15 16 17 17 17 17 17 17 16 15 14 12 12 12 11 10 11 11 11 10 10 10 11 11 10 10 10 10 9 9 9 9 9 9 9 9 9 9 9 9 8 9 9 9 9
11 11 10 9 9 8 8 8 8 8 7 6 6 5 4 4 4 4 4 5 5 5 4 4 4 4 5 5 5 6 6 7 7 7 9 11 12 14 15 16 17 18 18 19 19 19 19 19 17 16 14 13 13 13 13 12 11 11 12 12 11 11 11 12 12 12 12 11 10 10 10 9 9 9 9 9 9 9 9 9 9 9 10 10 10
11 11 10 9 9 9 10 10 10 10 9 8 8 6 5 5 5 5 5 6 6 6 6 5 6 6 6 7 8 8 8 9 10 10 11 14 15 17 18 19 20 20 20 20 20 20 20 19 18 16 15 14 14 14 13 13 13 12 12 12 12 12 11 12 12 12 12 12 12 12 11 11 10 9 9 9 9 9 9 9 10 11 11 11 11
11 10 10 10 11 11 11 11 11 11 10 10 9 8 7 6 6 6 6 7 7 7 7 7 7 7 8 9 11 11 11 12 13 13 15 16 18 19 20 21 21 21 20 20 19 20 20 19 18 17 15 14 14 15 15 14 14 13 13 13 14 14 13 13 13 13 13 12 13 13 13 12 12 11 10 10 9 9 9 9 11 12 12 12 12
10 10 11 11 12 12 12 12 12 12 11 11 11 9 8 8 8 8 8 8 8 9 8 9 9 9 10 12 13 14 14 15 17 17 18 19 20 21 22 22 22 21 20 19 19 19 19 19 18 18 16 15 14 15 16 16 16 15 15 14 14 15 15 15 15 14 13 13 13 14 14 14 13 12 11 11 11 10 9 9 10 11 12 12 13
11 11 12 12 11 11 12 12 13 13 13 13 12 11 10 10 10 10 10 10 11 11 11 10 11 11 12 13 15 16 17 18 19 20 20 20 21 21 21 21 21 20 19 18 19 19 19 19 18 18 18 17 16 15 16 16 17 17 17 17 16 16 16 16 16 16 15 15 14 14 15 15 14 13 12 12 12 11 10 9 9 10 12 13 14
13 13 13 11 11 10 11 12 13 13 14 14 13 13 13 12 13 13 12 13 13 13 13 12 13 13 13 15 17 18 19 20 20 20 20 20 19 19 19 19 19 19 19 19 19 19 19 19 18 18 18 18 18 17 17 17 18 18 19 19 19 19 18 18 18 18 17 17 16 15 15 16 16 15 14 13 13 12 11 10 10 11 13 14 14
15 14 13 11 11 11 12 12 12 13 13 14 15 15 15 14 15 15 15 15 15 15 15 14 14 14 15 16 17 18 19 19 19 18 17 17 16 16 17 18 18 19 19 19 19 19 19 18 18 18 18 19 20 20 19 19 19 20 20 21 21 21 21 20 20 19 19 20 19 17 16 16 16 18 17 15 15 15 14 13 12 12 14 15 15
16 15 14 14 14 13 13 13 13 13 13 14 15 16 16 16 16 16 16 16 16 16 16 15 15 15 16 17 17 17 17 17 16 15 15 14 14 15 16 16 17 17 17 18 18 18 18 18 18 19 19 20 21 21 22 22 22 22 22 23 23 23 23 23 22 22 21 22 21 20 20 18 16 18 19 17 17 18 17 17 15 15 15 15 17
17 17 17 16 17 17 16 15 15 14 14 14 15 16 16 16 17 17 17 17 17 17 17 17 17 17 16 16 16 16 15 15 14 14 14 14 14 15 15 16 16 16 16 16 16 17 17 18 18 19 20 21 22 22 23 23 23 24 24 24 25 25 26 25 25 24 24 24 24 23 22 21 19 19 19 19 20 19 18 18 18 17 16 16 17
18 18 19 18 19 19 19 18 17 17 16 16 16 16 16 16 17 18 18 18 18 18 18 18 18 18 16 15 15 14 14 13 13 14 14 14 15 16 16 16 15 15 15 15 15 16 16 17 18 18 20 21 22 23 23 24 24 24 24 25 26 26 27 28 28 27 25 25 26 26 24 23 22 21 20 20 21 21 20 19 18 18 18 18 18
Wind_Direction
105 109 111 108 106 111 114 113 110 108 110 108 100 79 60 63 62 65 77 86 91 94 98 102 103 101 101 102 102 98 95 95 94 90 86 85 83 76 67 62 59 56 56 56 55 53 49 48 48 50 54 53 47 46 48 52 56 54 53 52 54 59 63 65 67 72 74 74 74 72 73 72 69 67 63 65 72 76 83 92 106 125 149 165 176
98 100 104 103 104 112 114 113 110 107 106 96 72 50 42 50 62 76 81 83 88 93 98 99 99 98 97 97 98 98 98 97 93 89 86 84 77 70 64 60 58 55 55 58 58 54 51 49 47 47 49 51 47 45 45 46 52 53 54 52 52 54 58 62 66 71 72 74 76 73 70 68 66 68 67 67 71 72 75 82 93 103 120 140 158
98 97 98 99 107 114 111 110 109 105 98 72 51 46 47 65 74 79 82 85 88 90 93 94 94 95 97 99 102 101 99 96 91 87 83 79 74 70 65 62 60 59 61 61 58 53 51 48 46 45 44 49 51 52 51 49 52 53 54 54 53 53 56 60 66 72 74 79 79 75 71 68 63 61 65 67 68 65 70 73 78 94 112 128 141
103 101 97 97 106 109 104 100 92 86 76 55 52 55 61 73 76 76 79 82 84 86 89 90 92 95 99 104 105 102 97 93 88 83 79 75 73 72 69 66 65 63 63 61 55 50 50 47 43 43 42 48 55 58 56 53 53 54 55 56 54 52 56 58 65 75 81 84 81 78 74 69 66 60 61 66 69 65 64 69 69 77 95 114 131
101 99 96 92 93 95 94 87 72 67 66 64 63 66 72 74 76 75 76 80 82 87 89 91 94 96 100 107 103 96 92 88 85 80 74 71 70 70 66 63 63 60 57 55 51 47 48 49 43 39 38 44 54 56 54 50 48 48 49 54 56 55 60 59 62 74 82 83 80 83 82 75 74 67 63 62 67 68 64 70 70 70 76 87 104
97 94 88 83 83 84 86 81 73 75 77 80 77 75 78 77 76 76 77 81 85 91 94 96 96 95 101 101 94 89 88 86 80 74 68 66 64 61 54 51 54 51 50 49 46 43 41 48 49 37 28 30 39 44 45 43 38 35 34 34 46 64 67 64 64 67 80 88 87 88 90 86 83 76 69 63 61 66 68 72 73 69 69 76 84
92 88 82 80 85 87 85 82 81 88 88 85 80 74 75 76 75 75 81 87 93 98 98 98 96 97 100 91 87 89 88 80 71 63 58 55 54 49 37 36 41 38 40 41 40 40 34 37 45 41 23 6 11 19 29 34 30 27 24 16 8 54 73 65 67 60 65 82 90 88 87 85 86 81 73 68 62 60 64 72 77 74 71 73 79
91 87 88 88 88 89 87 85 85 88 86 77 72 69 70 72 76 81 92 100 103 101 99 98 97 100 96 89 88 90 82 71 63 54 51 50 49 40 24 28 36 36 36 31 28 30 26 22 21 26 19 352 354 359 4 13 20 23 20 10 358 351 31 47 53 54 50 52 63 75 72 69 78 78 75 76 73 64 60 71 88 102 104 83 73
92 90 90 89 88 87 85 85 84 82 80 75 72 73 74 77 85 97 105 107 106 100 98 94 99 103 90 87 87 83 74 67 62 54 52 53 52 38 20 29 36 37 37 33 22 17 17 14 4 2 6 352 346 345 343 348 357 8 12 6 359 355 347 26 44 51 60 55 55 63 60 55 62 69 73 87 99 97 84 86 127 176 183 156 117
93 91 89 88 89 88 85 85 85 85 84 84 84 85 90 96 101 104 104 101 99 91 87 86 89 86 73 76 75 74 75 72 66 59 56 55 52 32 16 25 28 27 26 27 19 10 9 4 355 349 351 351 344 338 328 327 333 341 354 2 358 357 343 29 63 62 96 110 84 66 57 50 53 62 67 84 122 142 131 140 197 250 250 230 208
95 92 91 90 91 89 87 89 89 92 97 96 96 99 108 117 112 101 97 93 88 81 47 47 40 42 54 62 69 76 81 79 71 63 57 53 42 20 12 16 14 10 9 8 6 360 355 348 347 343 335 338 342 334 317 307 311 317 331 355 4 2 345 256 141 119 120 125 108 74 57 50 48 56 64 77 101 143 152 170 199 238 256 262 254
99 95 93 91 90 87 86 91 95 102 105 104 106 115 125 122 110 103 100 94 78 60 12 7 13 29 50 61 72 79 81 79 75 66 55 45 28 12 11 13 7 2 357 349 342 338 334 329 332 338 330 325 331 330 324 312 303 300 306 329 6 14 356 261 219 201 141 91 93 91 70 52 43 51 57 70 81 103 130 165 200 219 234 254 261
105 101 98 96 93 92 93 98 105 115 117 117 122 128 129 119 110 103 97 87 66 36 2 4 18 32 51 63 66 70 75 77 73 62 50 36 13 12 24 24 16 4 352 341 336 331 323 315 310 314 315 315 319 320 320 314 304 299 298 306 348 16 354 241 220 213 174 144 122 125 92 50 37 46 46 58 72 80 95 121 180 214 229 243 255
108 105 103 101 100 102 107 114 123 133 137 141 137 132 127 113 99 92 86 74 58 29 7 16 29 43 60 62 61 65 72 73 69 58 47 35 13 29 41 38 27 12 359 356 353 350 337 327 309 293 290 306 322 322 319 306 299 299 297 302 322 328 297 236 211 222 206 193 167 147 100 36 26 39 42 44 55 66 73 74 87 171 224 241 249
108 105 102 98 99 110 125 136 144 152 157 155 139 124 113 101 94 91 88 73 55 33 23 34 52 65 70 68 67 70 74 74 72 68 67 63 46 49 47 34 27 15 6 5 359 4 6 359 347 310 281 293 324 338 332 312 299 297 295 300 300 275 277 270 233 231 222 228 225 174 129 344 355 23 35 38 36 39 56 63 61 57 185 244 253
108 105 99 92 97 120 136 148 152 156 153 142 125 107 102 98 100 97 86 70 59 51 47 53 68 79 80 77 76 77 79 81 79 79 82 81 59 53 47 26 21 15 9 6 357 4 16 22 27 18 327 303 325 335 330 314 304 295 284 275 266 263 269 278 275 262 240 236 235 220 222 257 303 336 4 26 29 19 18 39 52 43 28 20 245
113 107 100 98 111 127 137 149 147 135 122 115 105 96 95 96 99 95 82 71 69 66 64 66 76 84 84 81 80 81 81 81 80 80 80 72 54 49 48 31 25 25 16 11 7 11 21 32 39 39 28 1 343 326 304 299 298 288 274 254 239 244 257 273 282 283 262 223 216 230 243 248 266 290 313 346 10 12 1 359 24 37 19 360 258
117 106 103 113 127 133 134 140 130 116 112 107 100 92 89 93 98 92 82 77 77 75 72 74 79 84 82 80 80 80 80 79 79 80 80 71 58 53 56 52 48 48 41 35 34 36 40 46 48 46 41 29 9 351 329 315 301 283 275 259 241 236 248 253 262 270 248 205 184 219 252 243 243 262 286 304 324 342 345 346 344 351 351 336 310
121 113 115 128 131 129 126 128 121 114 109 102 96 93 92 94 95 91 86 82 80 79 76 77 79 81 81 80 80 80 79 80 80 81 81 76 68 62 62 62 60 63 64 59 53 52 54 56 56 56 54 49 39 25 8 353 332 306 294 284 269 229 241 254 255 251 229 195 140 212 248 244 236 246 265 280 292 301 307 319 318 308 292 292 294
144 143 137 135 131 127 128 128 120 113 106 100 97 97 98 97 95 91 87 83 81 79 78 78 80 82 83 82 80 79 80 81 82 82 82 80 75 67 65 65 63 65 67 66 63 60 60 60 61 62 62 62 59 52 41 25 11 355 340 326 317 60 32 297 287 278 235 76 70 221 235 243 243 243 251 265 271 275 279 282 284 288 278 263 258
173 161 147 141 138 137 135 127 117 110 103 100 100 99 98 97 95 90 86 83 81 79 79 80 83 85 84 84 81 77 78 80 82 83 83 80 76 70 67 66 64 62 61 61 61 61 62 63 63 65 65 67 68 66 62 51 34 18 10 357 349 25 42 21 13 29 46 66 44 250 240 236 242 247 251 259 264 262 263 266 266 267 268 261 253
183 159 150 148 143 140 133 121 112 107 103 101 99 97 97 95 92 89 86 83 82 81 81 82 85 86 84 84 81 76 77 79 83 84 82 78 75 71 69 67 67 65 63 61 60 62 62 62 62 63 65 66 68 68 65 58 47 33 23 10 357 20 42 42 44 55 77 83 67 196 261 252 249 256 256 257 259 259 257 257 257 259 261 261 258
173 160 154 148 139 133 125 116 112 109 105 101 96 93 92 91 91 89 86 84 84 84 84 85 87 86 82 82 80 78 81 82 83 85 83 80 76 72 70 69 69 69 71 71 67 66 65 64 63 63 64 65 67 69 68 65 58 48 36 25 13 25 43 45 51 61 70 61 54 44 334 309 289 279 268 262 259 258 257 255 254 255 257 257 257
163 160 153 141 133 127 121 117 116 112 105 99 94 90 87 88 91 91 88 86 87 87 87 88 90 88 84 82 82 81 83 83 83 85 86 85 81 76 72 71 72 72 74 76 75 73 72 70 68 66 66 64 64 65 64 63 60 54 45 35 26 27 39 41 41 46 45 43 39 10 342 329 311 295 280 270 265 262 260 258 257 255 253 251 252
157 154 148 137 133 128 125 123 118 111 103 97 90 86 86 87 90 91 91 88 89 90 90 89 90 90 87 83 86 90 90 88 86 86 87 87 84 81 78 76 76 75 74 76 75 74 74 73 72 69 67 64 61 58 57 55 54 53 49 44 37 31 36 38 37 37 35 35 30 11 357 346 328 314 301 286 274 270 267 266 263 259 255 249 248
154 147 145 141 138 135 130 127 120 112 105 99 92 87 87 88 90 93 94 91 91 92 91 89 87 89 90 87 86 87 86 84 83 83 83 85 85 84 84 80 78 78 76 76 76 74 73 71 69 66 63 60 58 56 53 50 49 49 47 45 44 39 39 41 43 42 38 35 29 16 8 357 341 329 322 313 303 297 288 278 270 264 261 255 250
151 146 147 145 145 143 137 131 124 117 111 105 96 91 89 89 92 95 97 96 95 94 92 89 87 88 89 89 87 84 81 83 84 82 81 83 83 82 83 80 77 78 76 77 77 74 73 72 68 63 59 56 53 51 48 45 42 41 39 38 39 39 39 42 45 46 43 40 35 26 18 7 354 343 337 333 331 331 315 287 274 268 263 260 256
151 149 149 148 149 144 138 135 128 121 116 111 104 95 91 90 91 94 97 97 97 95 95 93 89 88 87 87 88 89 90 91 89 85 82 80 79 77 77 77 77 77 76 75 73 72 73 71 67 64 59 55 49 45 42 38 34 33 31 29 30 29 30 33 37 40 39 38 37 30 23 16 8 0 356 353 352 346 327 304 287 274 266 263 260
153 151 149 148 147 142 137 133 127 123 119 115 112 104 93 87 87 92 93 93 95 95 97 97 93 91 89 86 83 84 87 87 85 82 80 78 74 72 71 70 69 70 69 68 68 68 68 66 66 66 64 58 50 43 39 33 29 27 26 24 24 23 20 20 24 29 29 26 28 26 20 16 13 12 10 10 10 360 341 326 302 279 269 267 266
154 151 149 147 143 138 134 129 125 122 120 118 114 106 94 87 86 93 94 91 93 94 97 99 98 97 92 87 82 76 77 80 81 79 77 73 68 68 68 65 61 61 60 59 60 58 55 56 56 57 57 56 49 40 34 30 25 22 21 21 20 18 16 16 14 20 20 14 16 18 14 11 10 13 16 20 22 16 3 345 319 293 275 268 269
156 151 150 148 145 139 131 127 124 120 117 114 110 103 95 91 92 97 99 98 97 96 97 97 96 97 95 91 85 77 72 74 77 75 72 68 62 56 57 60 56 54 54 51 49 47 42 41 42 43 41 43 42 34 26 21 19 18 17 16 15 11 10 13 12 15 17 10 8 9 7 4 3 6 10 17 23 23 19 5 348 323 295 281 275
158 154 154 151 147 141 135 131 126 120 115 111 108 103 97 93 94 98 102 104 103 100 98 95 92 95 98 95 90 85 78 73 70 68 66 63 57 48 45 49 47 42 44 39 35 35 29 24 30 33 28 29 31 27 20 11 8 9 9 10 10 7 3 5 8 10 13 10 6 3 1 359 356 357 0 7 12 15 16 10 2 346 329 318 305
161 160 159 156 152 147 143 137 128 121 115 113 112 108 106 101 100 101 105 108 108 108 107 102 96 95 99 101 100 94 87 79 69 66 64 57 49 39 31 31 32 29 26 20 15 18 20 14 14 18 18 21 23 18 12 3 358 358 360 2 2 1 357 358 1 2 5 7 7 2 356 354 352 349 350 354 357 1 3 1 359 351 351 348 339
168 167 165 163 158 154 149 141 133 123 113 110 110 114 114 114 113 108 108 113 115 119 120 115 107 97 97 101 102 92 78 63 58 63 62 52 33 20 12 9 11 13 12 9 2 1 10 8 3 7 6 10 17 12 1 353 351 350 352 355 354 352 350 352 354 354 357 359 2 1 353 349 348 344 343 344 343 344 346 347 349 349 354 358 357
174 172 170 169 163 161 155 147 141 129 118 106 100 107 117 120 119 117 116 121 126 130 131 126 116 101 94 93 93 77 50 30 28 42 55 49 24 6 2 358 354 1 8 6 357 353 0 359 354 358 357 358 8 7 354 343 343 346 348 348 347 346 345 347 347 346 348 350 352 354 350 345 341 339 337 336 333 331 332 332 336 340 348 355 357
176 175 174 175 171 168 163 157 153 143 132 115 97 93 111 129 131 133 136 137 137 134 135 135 125 116 85 86 92 51 33 38 25 20 34 39 21 1 356 353 351 354 355 353 353 349 349 348 346 349 349 351 358 360 349 336 335 342 346 345 342 343 343 342 340 338 340 341 343 343 343 339 333 332 329 326 325 324 326 327 327 330 337 344 346
177 179 179 180 179 176 172 170 168 160 148 127 106 91 101 130 141 149 152 150 151 141 140 147 139 159 275 77 97 73 16 48 30 10 13 19 15 357 345 346 347 347 343 339 342 341 338 338 338 340 342 348 353 352 343 332 330 336 344 344 342 343 341 338 336 335 335 336 336 335 333 330 326 326 322 319 320 322 325 325 323 325 330 332 331
180 183 185 186 186 186 183 182 184 183 180 160 135 105 116 143 155 164 167 171 178 163 152 161 164 173 227 67 98 84 348 357 348 338 353 358 354 344 337 337 335 333 333 332 331 329 329 329 329 332 337 344 347 344 336 328 325 328 338 343 342 341 339 338 335 333 334 333 332 329 325 324 321 320 320 319 319 320 322 319 319 323 325 326 326
185 187 189 191 193 195 194 196 198 207 218 209 215 228 185 175 182 187 190 201 208 198 184 176 178 178 200 258 307 31 315 325 320 321 338 341 336 332 329 329 325 321 320 321 321 318 319 321 320 325 333 338 338 335 329 323 319 321 331 339 339 339 338 339 336 333 333 333 331 325 320 319 317 316 317 318 319 320 321 318 317 321 323 323 321
190 193 195 198 200 202 203 211 215 221 232 233 242 254 260 238 213 211 212 219 225 224 220 203 194 196 220 263 287 290 298 309 315 325 333 332 328 324 324 324 320 315 313 312 310 309 311 315 315 319 327 333 330 326 324 319 314 316 324 330 332 336 337 338 337 335 333 331 328 321 317 316 314 312 312 313 315 317 320 320 319 321 324 324 319
195 198 202 204 206 209 212 220 226 231 235 239 248 253 255 252 234 226 225 224 229 233 228 215 214 219 239 260 275 285 295 302 307 321 323 320 317 314 315 316 313 312 312 311 309 307 308 309 310 313 320 324 322 319 318 314 310 313 318 321 326 331 333 334 336 337 334 331 326 320 316 312 308 307 306 307 309 311 313 316 318 321 325 327 323
200 202 206 208 210 215 220 224 229 234 236 238 244 246 249 251 240 229 226 225 225 227 227 224 228 232 246 261 270 278 287 291 296 307 308 306 305 305 307 309 309 311 312 311 308 306 304 303 304 308 312 315 314 312 313 311 308 310 312 314 319 323 326 329 334 337 334 332 327 322 318 311 305 302 300 301 303 304 307 311 315 319 322 324 323
208 207 208 209 212 217 221 225 229 233 235 237 239 240 245 248 244 235 229 229 224 222 226 227 236 242 251 265 273 277 282 288 294 298 296 297 299 300 302 304 305 307 307 305 303 302 300 299 300 302 305 306 306 306 308 308 306 305 307 309 311 315 318 322 329 333 330 329 326 324 321 312 306 303 298 296 296 297 302 308 313 317 319 319 320
219 218 217 216 218 223 226 228 233 236 235 237 237 236 240 241 242 239 234 233 230 229 231 234 242 251 262 270 275 280 287 290 292 292 290 292 295 296 298 299 300 300 299 297 297 298 297 296 296 297 298 299 300 301 303 304 303 302 303 304 306 308 311 313 318 323 324 323 322 322 322 315 310 306 300 294 289 289 295 303 311 317 322 323 323
227 229 229 229 231 234 237 237 238 239 238 238 236 234 235 235 236 237 236 236 236 237 240 245 252 259 268 274 278 284 289 289 289 289 290 291 292 293 295 296 295 293 291 292 293 295 297 296 295 295 293 293 294 295 297 300 301 302 301 300 300 301 304 306 308 312 316 317 315 317 318 316 312 307 300 295 289 286 289 301 311 320 327 332 333
225 231 232 235 241 244 244 242 241 241 241 240 237 234 233 233 233 234 235 236 237 241 245 250 258 263 268 276 282 286 288 287 287 288 289 289 290 291 293 293 292 290 289 291 293 295 296 295 293 292 292 291 291 290 291 294 297 300 300 299 297 296 297 298 300 304 306 308 308 310 312 312 312 308 299 293 289 285 286 296 310 321 327 333 336
222 227 231 234 241 247 247 245 244 244 244 243 239 235 233 233 234 234 236 239 240 243 247 252 259 265 271 277 283 287 289 289 289 289 289 289 290 293 295 295 293 292 291 292 293 295 294 293 291 291 292 293 294 292 290 290 292 295 296 296 296 294 294 294 295 298 300 301 302 304 305 307 310 308 299 291 286 283 283 289 300 311 318 324 329
232 233 234 235 238 243 245 248 250 251 250 248 242 237 236 236 237 237 238 242 244 248 252 256 261 268 274 279 283 287 289 291 291 291 291 291 295 298 300 301 300 297 296 294 294 294 293 293 292 293 294 295 296 295 293 291 290 289 290 292 293 293 294 293 292 293 295 297 299 302 301 302 304 302 301 296 286 283 284 286 292 299 306 312 317
239 242 242 239 238 239 242 246 250 253 253 251 247 243 241 241 241 242 243 246 249 253 257 261 265 270 276 281 285 288 290 292 294 295 296 296 298 300 304 306 306 304 302 299 298 297 296 296 296 296 296 295 295 295 294 292 290 289 289 289 291 292 292 292 291 291 291 292 295 299 299 301 299 295 297 296 287 283 284 285 288 291 295 302 308
242 245 246 245 243 241 241 242 245 248 250 250 250 248 247 247 246 246 248 250 253 257 261 265 269 274 280 285 287 288 290 292 297 299 298 298 298 301 305 308 310 310 309 307 305 305 304 303 301 300 298 297 296 294 293 291 290 290 290 290 290 290 291 291 290 290 289 289 291 293 295 300 299 293 291 291 289 287 285 284 286 287 290 297 303
244 247 248 247 245 244 242 241 242 243 245 246 248 250 251 250 250 251 252 254 256 260 263 267 272 278 282 284 285 286 288 291 296 297 296 296 297 298 301 305 309 311 312 313 312 312 311 308 305 303 301 299 297 295 295 294 293 293 292 292 292 291 291 290 289 289 288 287 287 289 291 295 297 295 290 286 288 289 285 282 283 286 291 297 300
Height
5891 5891 5892 5893 5894 5894 5894 5894 5894 5894 5894 5895 5896 5896 5896 5896 5897 5898 5898 5898 5898 5898 5899 5899 5900 5901 5901 5901 5901 5901 5901 5902 5902 5902 5903 5904 5904 5904 5904 5903 5904 5904 5904 5904 5904 5903 5903 5903 5903 5904 5904 5904 5904 5905 5905 5905 5905 5905 5905 5904 5904 5904 5903 5903 5903 5902 5902 5903 5903 5903 5904 5904 5904 5904 5904 5904 5904 5904 5904 5905 5905 5906 5906 5907 5908
5892 5892 5893 5894 5895 5895 5895 5895 5895 5895 5895 5896 5896 5896 5897 5897 5898 5898 5898 5898 5899 5900 5900 5901 5901 5901 5901 5902 5902 5902 5903 5903 5903 5903 5904 5905 5905 5905 5905 5904 5905 5905 5905 5905 5904 5904 5904 5904 5904 5904 5904 5905 5905 5905 5905 5906 5906 5906 5905 5905 5905 5905 5904 5904 5903 5903 5903 5903 5903 5904 5904 5904 5905 5905 5905 5905 5905 5905 5906 5906 5906 5906 5907 5908 5908
5893 5894 5894 5895 5896 5896 5896 5896 5896 5896 5896 5896 5896 5896 5897 5898 5898 5898 5899 5900 5900 5901 5902 5902 5902 5902 5902 5903 5903 5903 5904 5904 5904 5905 5905 5906 5906 5906 5906 5905 5905 5905 5905 5905 5904 5904 5904 5904 5904 5905 5905 5905 5905 5905 5906 5906 5906 5906 5906 5906 5905 5905 5905 5904 5904 5904 5904 5903 5904 5904 5905 5905 5906 5906 5906 5906 5906 5907 5907 5907 5907 5907 5907 5908 5909
5894 5895 5895 5895 5896 5896 5896 5896 5896 5896 5896 5896 5895 5896 5898 5899 5899 5900 5900 5901 5902 5902 5903 5903 5903 5903 5904 5904 5904 5905 5905 5906 5906 5906 5906 5906 5906 5906 5906 5906 5906 5906 5906 5905 5905 5905 5905 5905 5905 5905 5906 5906 5906 5906 5906 5906 5906 5906 5906 5906 5906 5905 5905 5905 5905 5904 5904 5903 5904 5905 5906 5906 5906 5907 5907 5907 5907 5908 5908 5908 5908 5908 5908 5909 5909
5895 5896 5896 5896 5896 5896 5896 5897 5896 5896 5896 5896 5897 5899 5899 5900 5900 5901 5902 5902 5903 5903 5904 5904 5904 5904 5905 5905 5905 5906 5907 5907 5906 5906 5906 5907 5907 5907 5907 5906 5906 5906 5906 5905 5905 5905 5906 5906 5906 5906 5906 5907 5907 5907 5907 5907 5906 5906 5906 5905 5905 5905 5905 5905 5905 5904 5904 5904 5905 5906 5906 5907 5907 5908 5908 5908 5909 5909 5909 5909 5909 5909 5909 5910 5910
5896 5897 5897 5897 5897 5897 5898 5898 5897 5897 5897 5898 5899 5900 5901 5901 5902 5902 5903 5904 5904 5904 5905 5905 5905 5905 5906 5906 5907 5908 5908 5907 5907 5906 5907 5907 5907 5907 5907 5906 5906 5906 5906 5906 5906 5906 5906 5907 5907 5907 5907 5907 5907 5907 5907 5907 5907 5907 5906 5906 5905 5905 5905 5905 5905 5905 5905 5906 5907 5907 5907 5908 5908 5908 5909 5909 5909 5910 5910 5910 5910 5910 5910 5911 5911
5897 5897 5898 5899 5899 5899 5899 5899 5899 5899 5900 5901 5901 5902 5902 5903 5903 5904 5904 5905 5905 5905 5905 5906 5906 5906 5907 5907 5908 5908 5908 5907 5907 5907 5907 5907 5908 5908 5907 5906 5907 5907 5907 5907 5907 5907 5907 5907 5907 5907 5907 5908 5908 5908 5908 5908 5907 5907 5907 5906 5906 5905 5905 5906 5906 5906 5906 5908 5909 5909 5909 5909 5909 5909 5909 5909 5910 5911 5911 5911 5911 5912 5912 5912 5912
5898 5899 5899 5900 5900 5900 5900 5901 5901 5902 5902 5903 5903 5903 5904 5904 5905 5905 5906 5906 5906 5906 5906 5906 5906 5907 5908 5908 5908 5909 5908 5907 5907 5907 5907 5908 5908 5908 5907 5907 5908 5908 5907 5908 5908 5908 5908 5908 5908 5908 5908 5908 5908 5908 5908 5908 5908 5907 5907 5907 5906 5906 5907 5907 5908 5908 5908 5909 5910 5910 5910 5910 5910 5910 5910 5910 5910 5911 5912 5912 5912 5913 5913 5913 5913
5900 5900 5901 5901 5902 5902 5902 5902 5903 5903 5904 5904 5905 5905 5905 5905 5906 5906 5906 5906 5907 5906 5907 5907 5907 5908 5908 5908 5909 5909 5908 5908 5908 5908 5908 5908 5909 5908 5907 5908 5908 5908 5908 5908 5908 5908 5909 5909 5908 5908 5908 5909 5909 5908 5908 5908 5908 5908 5908 5907 5907 5908 5908 5909 5910 5909 5909 5909 5909 5910 5910 5911 5911 5910 5910 5910 5911 5911 5912 5913 5913 5913 5914 5914 5914
5901 5902 5902 5903 5903 5903 5904 5904 5904 5904 5905 5906 5906 5906 5906 5906 5906 5907 5907 5907 5907 5907 5907 5907 5908 5908 5908 5909 5909 5909 5909 5908 5908 5908 5909 5909 5909 5908 5908 5908 5908 5908 5908 5909 5909 5909 5909 5909 5909 5908 5908 5909 5909 5909 5909 5909 5908 5908 5908 5908 5908 5909 5909 5909 5910 5909 5908 5908 5909 5909 5910 5911 5911 5911 5911 5911 5911 5911 5912 5913 5913 5914 5914 5915 5915
5902 5903 5903 5904 5904 5905 5905 5905 5905 5905 5906 5907 5907 5907 5907 5907 5907 5907 5907 5907 5907 5907 5907 5908 5908 5908 5909 5909 5909 5909 5909 5909 5909 5909 5909 5909 5909 5908 5908 5909 5908 5908 5908 5909 5909 5909 5909 5909 5909 5909 5909 5909 5909 5909 5909 5909 5909 5909 5909 5909 5909 5910 5910 5910 5909 5908 5908 5909 5910 5910 5910 5911 5912 5911 5911 5911 5911 5911 5912 5912 5913 5914 5914 5915 5916
5903 5904 5904 5905 5905 5906 5906 5906 5906 5906 5907 5907 5907 5907 5908 5908 5908 5908 5908 5908 5908 5908 5908 5908 5908 5909 5909 5909 5909 5909 5910 5910 5910 5910 5910 5910 5909 5909 5909 5909 5909 5908 5908 5908 5909 5909 5909 5909 5909 5909 5909 5909 5909 5909 5909 5909 5909 5909 5909 5910 5910 5911 5910 5910 5909 5909 5910 5911 5911 5911 5911 5911 5912 5912 5912 5912 5911 5911 5912 5912 5913 5914 5914 5915 5916
5904 5905 5905 5906 5906 5906 5907 5907 5907 5907 5907 5907 5907 5908 5908 5908 5908 5908 5908 5908 5908 5908 5908 5908 5909 5909 5909 5909 5910 5910 5910 5911 5911 5911 5911 5910 5910 5910 5910 5910 5909 5908 5908 5908 5909 5909 5909 5909 5909 5909 5909 5909 5909 5909 5909 5909 5909 5909 5909 5910 5911 5911 5910 5909 5909 5910 5912 5912 5912 5912 5912 5911 5912 5912 5912 5912 5912 5912 5912 5912 5913 5914 5914 5915 5916
5905 5905 5906 5906 5907 5907 5907 5907 5907 5908 5908 5908 5908 5908 5908 5908 5908 5908 5909 5908 5908 5908 5908 5909 5909 5910 5910 5910 5910 5911 5911 5912 5912 5911 5911 5911 5910 5911 5911 5910 5910 5910 5909 5909 5909 5909 5909 5909 5909 5909 5909 5909 5909 5909 5909 5909 5909 5909 5910 5910 5911 5910 5909 5909 5910 5910 5912 5912 5912 5913 5913 5912 5912 5913 5913 5913 5912 5912 5912 5913 5913 5914 5914 5915 5916
5905 5906 5906 5907 5907 5907 5907 5908 5908 5908 5908 5908 5908 5908 5908 5909 5909 5909 5909 5909 5909 5909 5909 5910 5910 5910 5911 5911 5911 5911 5912 5912 5912 5912 5912 5911 5911 5911 5911 5911 5911 5911 5910 5910 5910 5909 5910 5910 5909 5909 5909 5909 5909 5909 5909 5909 5908 5908 5909 5910 5910 5909 5908 5910 5910 5911 5912 5912 5912 5913 5913 5913 5913 5913 5913 5913 5913 5913 5913 5913 5913 5914 5914 5915 5916
5906 5906 5907 5907 5907 5908 5908 5908 5908 5908 5908 5908 5908 5909 5909 5909 5909 5909 5910 5910 5910 5910 5910 5910 5910 5911 5911 5912 5912 5912 5913 5913 5913 5913 5913 5912 5912 5912 5912 5912 5912 5912 5911 5911 5910 5910 5910 5910 5909 5909 5909 5909 5909 5909 5909 5908 5908 5908 5908 5909 5909 5908 5908 5910 5910 5911 5912 5912 5912 5913 5913 5914 5914 5914 5914 5913 5913 5913 5913 5913 5914 5914 5914 5915 5916
5906 5907 5907 5907 5908 5908 5908 5909 5909 5909 5909 5909 5909 5909 5909 5910 5910 5910 5910 5911 5910 5910 5911 5911 5911 5911 5912 5913 5913 5913 5914 5914 5914 5914 5914 5913 5913 5913 5913 5913 5913 5913 5912 5912 5912 5911 5911 5910 5910 5909 5909 5909 5909 5909 5908 5908 5907 5907 5907 5908 5908 5908 5909 5910 5911 5911 5911 5912 5912 5913 5914 5914 5914 5914 5913 5913 5913 5913 5913 5914 5914 5914 5914 5915 5915
5906 5907 5907 5908 5908 5908 5909 5909 5909 5909 5909 5909 5909 5910 5910 5910 5911 5911 5911 5911 5911 5911 5911 5911 5911 5912 5913 5914 5914 5915 5915 5915 5915 5915 5915 5915 5914 5914 5914 5914 5914 5913 5913 5913 5913 5912 5912 5911 5911 5910 5910 5910 5909 5909 5909 5908 5908 5907 5906 5907 5908 5909 5910 5909 5909 5909 5910 5911 5911 5912 5913 5914 5914 5913 5913 5913 5913 5913 5913 5914 5914 5914 5915 5915 5916
5906 5907 5907 5907 5908 5908 5909 5909 5909 5909 5909 5910 5910 5910 5910 5911 5911 5911 5911 5912 5912 5912 5912 5912 5912 5913 5913 5914 5915 5915 5916 5916 5916 5916 5916 5916 5915 5915 5915 5915 5915 5915 5914 5914 5914 5913 5912 5912 5911 5911 5911 5910 5910 5910 5909 5909 5908 5907 5906 5906 5907 5909 5909 5907 5907 5909 5910 5910 5910 5910 5912 5912 5913 5913 5912 5912 5912 5913 5913 5913 5914 5914 5915 5915 5916
5906 5906 5907 5908 5908 5909 5909 5909 5910 5910 5910 5910 5910 5910 5911 5911 5912 5912 5912 5912 5912 5912 5912 5913 5913 5913 5914 5915 5915 5916 5916 5917 5917 5917 5917 5917 5916 5916 5916 5916 5916 5916 5916 5915 5915 5914 5913 5913 5912 5912 5912 5911 5911 5910 5909 5909 5908 5907 5906 5906 5907 5909 5909 5907 5907 5908 5909 5909 5909 5910 5911 5911 5912 5912 5912 5912 5912 5912 5913 5913 5914 5914 5915 5915 5915
5906 5907 5907 5908 5908 5909 5909 5910 5910 5910 5910 5910 5911 5911 5911 5912 5912 5912 5913 5913 5913 5913 5913 5914 5914 5914 5915 5915 5916 5917 5917 5918 5918 5918 5917 5917 5917 5917 5917 5917 5917 5917 5916 5916 5916 5915 5914 5914 5914 5913 5913 5912 5912 5911 5910 5910 5909 5908 5906 5905 5906 5909 5910 5908 5908 5908 5907 5908 5909 5910 5910 5910 5911 5911 5911 5911 5911 5912 5912 5912 5913 5913 5914 5915 5915
5906 5907 5908 5908 5909 5909 5910 5910 5911 5911 5911 5911 5911 5912 5912 5913 5913 5913 5913 5913 5914 5914 5914 5915 5915 5915 5915 5916 5917 5917 5918 5918 5918 5918 5918 5918 5918 5918 5918 5918 5918 5918 5917 5917 5917 5916 5916 5915 5915 5915 5914 5913 5913 5912 5911 5911 5910 5909 5907 5906 5906 5908 5910 5909 5908 5908 5908 5909 5909 5910 5910 5910 5910 5910 5910 5910 5910 5911 5911 5912 5912 5913 5914 5914 5915
5907 5908 5908 5909 5909 5910 5911 5911 5911 5911 5912 5912 5912 5912 5913 5913 5913 5914 5914 5914 5914 5915 5915 5916 5916 5916 5917 5917 5918 5918 5918 5919 5919 5919 5919 5919 5920 5920 5920 5920 5919 5919 5919 5918 5918 5917 5917 5916 5916 5916 5915 5915 5914 5913 5913 5912 5911 5910 5908 5907 5906 5908 5910 5909 5908 5909 5909 5909 5909 5909 5910 5909 5909 5909 5909 5909 5910 5910 5910 5911 5912 5912 5913 5914 5914
5907 5908 5909 5909 5910 5910 5911 5912 5912 5912 5913 5913 5913 5913 5913 5913 5914 5914 5915 5915 5915 5916 5916 5917 5917 5918 5918 5918 5919 5919 5919 5920 5919 5919 5920 5920 5920 5921 5921 5921 5920 5920 5920 5919 5919 5919 5918 5918 5918 5918 5917 5916 5915 5914 5914 5913 5912 5911 5910 5908 5906 5906 5908 5908 5908 5910 5909 5908 5908 5909 5909 5909 5908 5908 5908 5909 5909 5909 5910 5910 5911 5912 5912 5913 5913
5907 5908 5909 5910 5910 5911 5912 5912 5913 5913 5913 5913 5913 5914 5914 5914 5915 5915 5915 5916 5916 5916 5917 5918 5918 5919 5919 5919 5920 5921 5921 5920 5920 5920 5920 5921 5921 5922 5922 5922 5921 5921 5921 5920 5920 5920 5919 5919 5919 5919 5918 5917 5916 5915 5915 5914 5913 5912 5911 5910 5908 5907 5908 5908 5908 5909 5909 5908 5907 5909 5908 5908 5907 5907 5908 5908 5908 5909 5909 5910 5910 5911 5911 5912 5912
5907 5908 5909 5910 5911 5912 5912 5913 5913 5914 5914 5914 5914 5915 5915 5915 5916 5916 5916 5916 5917 5917 5918 5918 5919 5919 5920 5920 5920 5921 5921 5920 5920 5921 5921 5921 5922 5922 5922 5922 5922 5922 5922 5921 5920 5921 5920 5920 5920 5919 5919 5918 5917 5917 5916 5916 5915 5914 5913 5912 5911 5910 5909 5909 5909 5909 5909 5908 5908 5908 5908 5907 5907 5907 5907 5907 5908 5909 5909 5910 5910 5910 5910 5910 5910
5908 5909 5910 5911 5912 5912 5913 5913 5914 5915 5915 5915 5916 5916 5916 5917 5917 5917 5917 5917 5918 5918 5918 5919 5919 5920 5920 5921 5921 5921 5921 5921 5921 5922 5922 5922 5923 5923 5923 5922 5923 5922 5922 5922 5921 5921 5921 5920 5920 5920 5919 5919 5918 5918 5917 5917 5916 5915 5914 5914 5913 5912 5911 5911 5911 5910 5910 5910 5909 5909 5908 5908 5907 5907 5907 5907 5908 5909 5908 5907 5908 5908 5908 5909 5909
5908 5909 5910 5911 5912 5913 5914 5914 5915 5915 5916 5916 5916 5917 5917 5917 5918 5918 5918 5918 5918 5919 5919 5919 5920 5920 5920 5921 5922 5922 5922 5923 5923 5923 5922 5923 5923 5923 5923 5923 5923 5923 5923 5923 5922 5921 5921 5921 5920 5920 5920 5919 5919 5919 5918 5918 5917 5916 5916 5915 5914 5913 5913 5912 5912 5911 5911 5910 5910 5909 5909 5908 5908 5907 5907 5908 5908 5908 5906 5906 5906 5906 5906 5907 5907
5909 5910 5911 5912 5913 5914 5914 5915 5916 5916 5917 5917 5917 5918 5918 5918 5918 5918 5919 5919 5919 5919 5920 5920 5920 5920 5920 5921 5922 5922 5923 5923 5923 5923 5923 5923 5923 5923 5923 5924 5924 5924 5923 5923 5922 5922 5922 5921 5921 5921 5920 5920 5920 5920 5919 5919 5918 5918 5917 5916 5915 5915 5914 5913 5912 5912 5912 5911 5911 5910 5910 5909 5908 5908 5908 5908 5908 5907 5906 5906 5905 5905 5905 5905 5905
5909 5910 5911 5912 5913 5914 5915 5916 5916 5917 5917 5918 5918 5918 5918 5919 5919 5919 5919 5920 5920 5920 5920 5920 5921 5921 5921 5921 5921 5922 5922 5922 5923 5923 5923 5923 5923 5924 5924 5924 5924 5924 5924 5923 5923 5923 5923 5922 5922 5922 5921 5921 5920 5920 5920 5920 5919 5918 5918 5917 5916 5916 5915 5914 5913 5913 5912 5912 5911 5911 5910 5910 5909 5908 5908 5908 5907 5907 5906 5905 5904 5904 5904 5903 5903
5910 5911 5912 5913 5914 5915 5915 5916 5917 5917 5918 5918 5918 5919 5919 5919 5920 5920 5920 5920 5921 5921 5921 5921 5921 5922 5922 5922 5922 5922 5922 5923 5923 5923 5924 5924 5924 5924 5924 5924 5924 5924 5923 5923 5923 5923 5923 5923 5923 5922 5922 5921 5920 5920 5920 5920 5919 5919 5918 5917 5917 5916 5915 5915 5914 5913 5913 5912 5912 5911 5911 5910 5909 5909 5908 5908 5907 5907 5906 5905 5904 5903 5902 5902 5903
5910 5911 5912 5913 5914 5915 5916 5917 5917 5918 5918 5919 5919 5919 5919 5920 5920 5921 5921 5921 5922 5922 5922 5922 5922 5923 5923 5923 5924 5924 5924 5923 5924 5924 5924 5924 5924 5924 5924 5924 5924 5923 5923 5923 5923 5923 5923 5923 5923 5922 5922 5921 5920 5920 5919 5920 5920 5919 5918 5918 5917 5916 5916 5915 5915 5914 5913 5913 5912 5912 5911 5910 5910 5909 5908 5908 5908 5907 5906 5905 5904 5903 5903 5903 5903
5910 5911 5912 5913 5914 5915 5916 5917 5918 5918 5919 5919 5920 5920 5920 5920 5921 5921 5922 5922 5922 5923 5923 5922 5922 5923 5924 5924 5924 5925 5925 5924 5924 5924 5924 5924 5924 5924 5924 5924 5924 5923 5924 5924 5925 5924 5924 5924 5923 5923 5922 5922 5921 5920 5919 5920 5920 5919 5918 5918 5917 5916 5916 5915 5915 5914 5914 5913 5912 5912 5911 5910 5910 5909 5908 5908 5907 5907 5906 5905 5904 5903 5903 5903 5902
5910 5911 5912 5913 5914 5915 5917 5917 5918 5919 5919 5920 5920 5920 5921 5921 5921 5921 5922 5922 5922 5923 5923 5923 5923 5923 5924 5924 5925 5925 5925 5925 5925 5924 5924 5924 5924 5924 5924 5925 5924 5924 5925 5925 5926 5925 5924 5924 5924 5923 5922 5922 5921 5919 5919 5919 5920 5919 5918 5918 5917 5916 5916 5916 5915 5914 5914 5913 5912 5912 5911 5910 5910 5909 5908 5908 5907 5906 5906 5905 5904 5903 5903 5902 5901
5910 5911 5912 5913 5915 5916 5917 5917 5918 5919 5919 5920 5920 5921 5921 5921 5921 5922 5922 5922 5922 5923 5923 5923 5923 5923 5924 5925 5925 5925 5925 5925 5925 5925 5925 5925 5924 5924 5924 5925 5925 5925 5925 5925 5925 5925 5924 5924 5924 5923 5922 5921 5920 5919 5919 5919 5919 5919 5918 5918 5917 5916 5916 5915 5915 5914 5913 5913 5912 5912 5911 5910 5910 5909 5908 5907 5907 5906 5905 5904 5904 5903 5903 5902 5901
5910 5912 5913 5914 5915 5916 5917 5917 5918 5919 5919 5920 5920 5921 5921 5921 5922 5922 5922 5922 5923 5923 5923 5923 5924 5924 5924 5925 5925 5925 5925 5925 5926 5926 5926 5925 5924 5924 5924 5925 5925 5925 5925 5924 5924 5924 5924 5923 5923 5922 5922 5921 5919 5919 5919 5918 5918 5919 5918 5918 5917 5916 5916 5915 5914 5914 5913 5912 5912 5911 5911 5910 5910 5909 5908 5907 5906 5906 5905 5904 5904 5903 5903 5902 5901
5911 5912 5913 5914 5915 5916 5917 5917 5918 5919 5919 5920 5920 5921 5921 5921 5921 5922 5922 5922 5923 5923 5923 5923 5924 5924 5924 5925 5925 5925 5925 5925 5926 5926 5926 5925 5925 5924 5924 5924 5925 5925 5924 5924 5924 5924 5923 5923 5922 5922 5921 5920 5919 5918 5919 5918 5918 5918 5918 5917 5916 5916 5915 5915 5914 5913 5913 5912 5911 5911 5910 5910 5909 5909 5908 5907 5906 5906 5905 5904 5904 5903 5902 5902 5901
5911 5912 5913 5914 5915 5916 5916 5917 5918 5918 5919 5919 5920 5920 5921 5921 5921 5922 5922 5922 5923 5923 5923 5924 5924 5924 5924 5924 5925 5926 5926 5925 5925 5926 5926 5925 5924 5924 5924 5924 5924 5924 5924 5923 5923 5923 5923 5922 5922 5921 5921 5919 5918 5918 5918 5918 5918 5917 5917 5917 5916 5916 5915 5914 5913 5912 5912 5911 5911 5910 5910 5909 5909 5908 5907 5907 5906 5906 5905 5905 5904 5903 5902 5901 5900
5911 5912 5913 5914 5915 5916 5916 5917 5918 5918 5919 5919 5920 5920 5920 5921 5921 5922 5922 5922 5923 5923 5924 5924 5924 5924 5924 5924 5925 5925 5926 5926 5926 5926 5925 5924 5924 5924 5924 5924 5923 5923 5923 5923 5922 5922 5922 5921 5921 5921 5919 5918 5918 5918 5918 5917 5917 5916 5916 5916 5916 5915 5914 5914 5913 5912 5911 5910 5910 5909 5909 5909 5908 5907 5906 5906 5905 5905 5905 5904 5903 5902 5902 5901 5900
5911 5912 5913 5914 5914 5915 5916 5917 5917 5918 5919 5919 5920 5920 5920 5920 5921 5921 5922 5922 5923 5923 5924 5924 5924 5924 5924 5924 5924 5925 5925 5925 5926 5925 5924 5923 5923 5923 5923 5923 5923 5922 5922 5921 5921 5921 5920 5920 5920 5919 5918 5917 5917 5917 5917 5917 5916 5916 5916 5915 5915 5915 5914 5913 5912 5911 5910 5910 5909 5909 5908 5908 5907 5907 5906 5905 5904 5904 5904 5903 5903 5902 5901 5901 5900
5911 5912 5913 5913 5914 5915 5916 5916 5917 5918 5918 5919 5919 5919 5920 5920 5921 5921 5922 5922 5923 5923 5924 5924 5924 5924 5924 5924 5924 5924 5924 5924 5924 5924 5923 5923 5923 5922 5922 5922 5922 5922 5921 5920 5920 5920 5919 5919 5919 5918 5917 5917 5917 5916 5916 5916 5915 5915 5915 5914 5914 5914 5913 5912 5911 5911 5910 5909 5908 5908 5907 5907 5906 5906 5905 5904 5903 5903 5903 5902 5902 5901 5900 5900 5899
5910 5911 5912 5913 5914 5914 5915 5916 5916 5917 5918 5918 5919 5919 5920 5920 5921 5921 5922 5922 5923 5923 5923 5924 5924 5924 5924 5924 5924 5924 5924 5923 5923 5922 5922 5922 5922 5921 5921 5921 5921 5920 5920 5919 5919 5919 5918 5918 5918 5917 5916 5916 5916 5916 5915 5915 5914 5914 5914 5913 5913 5913 5912 5911 5911 5910 5909 5908 5908 5907 5906 5906 5905 5905 5904 5903 5902 5902 5901 5901 5901 5901 5900 5899 5898
5910 5911 5912 5913 5913 5914 5914 5915 5916 5916 5917 5918 5918 5919 5919 5920 5920 5921 5921 5922 5922 5923 5923 5923 5924 5924 5923 5923 5923 5923 5923 5923 5922 5922 5921 5922 5921 5920 5920 5920 5919 5919 5918 5918 5918 5917 5917 5917 5916 5916 5915 5915 5915 5915 5914 5914 5913 5913 5913 5912 5912 5912 5911 5911 5910 5909 5909 5908 5907 5906 5906 5905 5904 5904 5903 5902 5902 5901 5900 5900 5900 5899 5899 5898 5897
5910 5911 5911 5912 5913 5913 5914 5914 5915 5915 5916 5917 5917 5918 5919 5919 5920 5920 5921 5921 5922 5922 5922 5923 5923 5923 5923 5923 5923 5923 5923 5922 5921 5921 5921 5921 5920 5920 5919 5919 5918 5918 5917 5917 5917 5916 5916 5916 5915 5914 5914 5914 5914 5913 5913 5913 5912 5912 5912 5911 5911 5910 5910 5910 5909 5909 5908 5908 5907 5906 5905 5904 5903 5902 5902 5901 5901 5900 5899 5899 5899 5898 5897 5897 5896
5909 5910 5911 5911 5912 5912 5913 5914 5914 5915 5915 5916 5917 5917 5918 5919 5919 5920 5920 5921 5921 5921 5921 5922 5922 5922 5923 5922 5922 5922 5922 5921 5921 5921 5920 5920 5919 5919 5918 5917 5916 5916 5916 5915 5915 5915 5915 5914 5913 5913 5913 5913 5913 5913 5912 5912 5911 5911 5910 5910 5909 5909 5909 5909 5908 5908 5907 5906 5906 5905 5904 5903 5902 5901 5901 5900 5900 5899 5898 5898 5897 5897 5896 5896 5895
5908 5909 5910 5911 5911 5912 5913 5913 5914 5914 5915 5915 5916 5917 5917 5918 5919 5919 5919 5920 5920 5920 5920 5921 5921 5922 5922 5922 5921 5921 5921 5921 5921 5920 5919 5919 5918 5917 5916 5916 5915 5914 5914 5914 5914 5913 5913 5913 5912 5912 5912 5912 5912 5912 5911 5911 5910 5910 5909 5909 5908 5908 5907 5907 5907 5906 5905 5905 5904 5904 5903 5902 5901 5900 5899 5899 5898 5898 5897 5896 5896 5895 5895 5894 5894
5907 5908 5909 5910 5911 5911 5912 5912 5913 5913 5914 5914 5915 5916 5916 5917 5918 5918 5919 5919 5919 5919 5919 5920 5920 5921 5921 5921 5920 5920 5920 5920 5919 5919 5918 5918 5917 5916 5915 5915 5914 5914 5913 5913 5912 5912 5912 5912 5911 5911 5911 5910 5910 5910 5910 5910 5909 5908 5908 5907 5907 5906 5906 5905 5905 5904 5904 5903 5902 5902 5901 5900 5899 5899 5898 5897 5897 5896 5895 5895 5894 5894 5893 5893 5893
5906 5907 5908 5909 5910 5910 5911 5911 5912 5913 5913 5914 5914 5915 5915 5916 5917 5917 5917 5918 5918 5918 5918 5919 5919 5920 5920 5920 5920 5919 5919 5918 5918 5918 5917 5916 5916 5915 5915 5914 5913 5913 5912 5912 5912 5912 5911 5911 5911 5910 5909 5909 5909 5908 5908 5908 5908 5907 5907 5906 5906 5905 5904 5904 5903 5902 5902 5901 5900 5900 5900 5899 5898 5897 5896 5895 5894 5894 5894 5893 5893 5892 5891 5891 5891
5905 5906 5907 5908 5908 5909 5909 5910 5911 5912 5912 5913 5913 5914 5914 5915 5916 5916 5916 5916 5917 5917 5917 5917 5918 5918 5918 5918 5918 5918 5917 5917 5917 5916 5916 5915 5915 5914 5914 5913 5913 5912 5912 5911 5911 5911 5911 5910 5910 5909 5908 5908 5907 5907 5907 5907 5906 5906 5905 5905 5904 5904 5903 5902 5901 5901 5900 5899 5898 5898 5897 5897 5897 5896 5894 5893 5892 5892 5892 5891 5891 5891 5890 5889 5888
5903 5904 5905 5906 5907 5907 5908 5909 5910 5910 5911 5911 5912 5912 5913 5914 5914 5915 5915 5915 5915 5916 5916 5916 5916 5916 5916 5917 5916 5916 5916 5916 5915 5915 5914 5914 5914 5913 5913 5913 5912 5911 5911 5911 5910 5910 5909 5909 5909 5908 5907 5907 5906 5905 5905 5905 5904 5904 5903 5903 5902 5902 5901 5900 5899 5899 5898 5896 5896 5896 5895 5895 5895 5894 5893 5892 5890 5890 5890 5889 5889 5889 5888 5887 5886
5901 5902 5903 5904 5905 5906 5906 5907 5908 5908 5909 5910 5910 5911 5912 5912 5913 5913 5913 5913 5914 5914 5914 5914 5914 5914 5914 5915 5914 5914 5914 5914 5914 5914 5913 5913 5913 5913 5912 5912 5911 5911 5910 5910 5910 5909 5908 5908 5907 5907 5906 5905 5905 5904 5903 5902 5902 5901 5901 5900 5900 5900 5899 5898 5897 5896 5896 5894 5893 5893 5893 5893 5893 5892 5892 5891 5889 5888 5888 5887 5887 5886 5885 5884 5883